K4BS Weather Reports


time (UTC)temp
C
wind
direction
speed
KPH
gust
KPH
rain 1hr
cm
rain 24hr
cm
rain mn
cm
humidity
%
barometer
mb
20260504082004 5 227 0.0 0.0 0.00 0.00 0.00 88 1019.2
20260504081504 5 227 0.0 0.0 0.00 0.00 0.00 87 1019.2
20260504080504 5 227 0.0 0.0 0.00 0.00 0.00 87 1019.2
20260504050504 6 227 0.0 0.0 0.00 0.00 0.00 85 1020.1
20260504050003 6 227 0.0 0.0 0.00 0.00 0.00 85 1020.2
20260504045503 6 227 0.0 0.0 0.00 0.00 0.00 84 1020.2
20260504045004 6 227 0.0 0.0 0.00 0.00 0.00 85 1020.1
20260504043504 6 227 0.0 0.0 0.00 0.00 0.00 83 1020.2
20260504043004 6 227 0.0 0.0 0.00 0.00 0.00 83 1020.0
20260504042504 6 227 0.0 0.0 0.00 0.00 0.00 83 1019.9
20260504042004 7 227 0.0 0.0 0.00 0.00 0.00 83 1020.1
20260504041504 7 227 0.0 0.0 0.00 0.00 0.00 82 1020.0
20260504040504 7 227 0.0 0.0 0.00 0.00 0.00 82 1020.0
20260504040004 7 227 0.0 0.0 0.00 0.00 0.00 82 1020.2
20260504035504 7 227 0.0 0.0 0.00 0.00 0.00 82 1020.1
20260504034504 7 227 0.0 0.0 0.00 0.00 0.00 81 1020.1
20260504034003 7 227 0.0 0.0 0.00 0.00 0.00 81 1020.1
20260504033504 7 227 0.0 0.0 0.00 0.00 0.00 81 1020.0
20260504033003 7 227 0.0 0.0 0.00 0.00 0.00 80 1019.9
20260504032504 7 227 0.0 0.0 0.00 0.00 0.00 80 1020.0
20260504032004 7 227 0.0 0.0 0.00 0.00 0.00 79 1020.0
20260504031503 8 227 0.0 0.0 0.00 0.00 0.00 79 1020.0
20260504031003 8 227 0.0 0.0 0.00 0.00 0.00 78 1020.1
20260504030004 8 227 0.0 0.0 0.00 0.00 0.00 77 1020.4
20260504025504 8 227 0.0 0.0 0.00 0.00 0.00 77 1020.4
20260504025003 8 227 0.0 0.0 0.00 0.00 0.00 76 1020.3
20260504024504 8 227 0.0 0.0 0.00 0.00 0.00 76 1020.4
20260504024004 8 227 0.0 0.0 0.00 0.00 0.00 76 1020.3
20260504023005 9 227 0.0 0.0 0.00 0.00 0.00 74 1020.2
20260504022505 9 227 0.0 0.0 0.00 0.00 0.00 73 1020.1
20260504022005 9 227 0.0 0.0 0.00 0.00 0.00 73 1020.0
20260504021505 10 227 0.0 0.0 0.00 0.00 0.00 73 1019.9
20260504021005 10 227 0.0 0.0 0.00 0.00 0.00 72 1019.8
20260504020506 10 227 0.0 0.0 0.00 0.00 0.00 72 1019.8
20260504020005 10 227 0.0 0.0 0.00 0.00 0.00 71 1020.2
20260504015505 10 227 0.0 0.0 0.00 0.00 0.00 70 1020.1
20260504015005 10 227 0.0 0.0 0.00 0.00 0.00 69 1020.1
20260504014005 10 227 0.0 0.0 0.00 0.00 0.00 70 1020.1
20260504013505 10 227 0.0 0.0 0.00 0.00 0.00 70 1019.9
20260504013005 11 227 0.0 0.0 0.00 0.00 0.00 69 1019.8
20260504012505 11 227 0.0 0.0 0.00 0.00 0.00 68 1019.7
20260504012005 11 227 0.0 0.0 0.00 0.00 0.00 67 1019.6
20260504011505 11 227 0.0 0.0 0.00 0.00 0.00 66 1019.6
20260504011005 12 227 0.0 0.0 0.00 0.00 0.00 66 1019.5
20260504010505 12 227 0.0 0.0 0.00 0.00 0.00 64 1019.5
20260504010005 12 227 0.0 0.0 0.00 0.00 0.00 63 1019.8
20260504005505 12 227 0.0 0.0 0.00 0.00 0.00 62 1019.7
20260504005005 13 227 0.0 0.0 0.00 0.00 0.00 60 1019.4
20260504004505 13 227 0.0 0.0 0.00 0.00 0.00 59 1019.4
20260504004005 13 227 0.0 0.0 0.00 0.00 0.00 56 1019.4
20260504003005 13 227 0.0 0.0 0.00 0.00 0.00 56 1019.1
20260504002505 14 227 0.0 0.0 0.00 0.00 0.00 54 1019.0
20260504002005 14 227 0.0 0.0 0.00 0.00 0.00 56 1019.1
20260504001505 15 227 0.0 0.0 0.00 0.00 0.00 54 1019.1
20260504001005 15 227 0.0 0.0 0.00 0.00 0.00 55 1019.1
20260504000505 15 227 0.0 0.0 0.00 0.00 0.00 53 1019.0
20260504000005 15 227 0.0 0.0 0.00 0.00 0.00 53 1019.4
20260503235505 15 227 0.0 1.6 0.00 0.00 0.00 52 1019.3
20260503235005 15 12 0.0 0.0 0.00 0.00 0.00 52 1019.2
20260503234005 16 253 0.0 0.0 0.00 0.00 0.00 50 1019.1
20260503233505 16 253 0.0 3.2 0.00 0.00 0.00 47 1019.1
20260503233005 16 264 1.6 3.2 0.00 0.00 0.00 48 1019.0
20260503232505 16 53 0.0 0.0 0.00 0.00 0.00 47 1019.1
20260503232005 16 53 0.0 0.0 0.00 0.00 0.00 48 1019.2
20260503231005 17 243 0.0 4.8 0.00 0.00 0.00 49 1019.0
20260503230505 17 303 0.0 0.0 0.00 0.00 0.00 47 1019.0
20260503225505 17 250 1.6 8.0 0.00 0.00 0.00 42 1019.2
20260503225005 17 236 1.6 9.7 0.00 0.00 0.00 42 1019.1
20260503224505 17 242 3.2 8.0 0.00 0.00 0.00 41 1019.1
20260503224005 17 240 3.2 9.7 0.00 0.00 0.00 41 1019.2
20260503223005 17 236 0.0 4.8 0.00 0.00 0.00 43 1019.2
20260503222505 17 236 0.0 4.8 0.00 0.00 0.00 40 1019.2
20260503222005 17 245 3.2 14.5 0.00 0.00 0.00 39 1019.1
20260503221505 18 256 6.4 16.1 0.00 0.00 0.00 39 1019.1
20260503220504 18 241 4.8 9.7 0.00 0.00 0.00 40 1019.1
20260503215505 18 243 6.4 9.7 0.00 0.00 0.00 42 1019.0
20260503215005 18 250 0.0 11.3 0.00 0.00 0.00 44 1019.0
20260503214505 18 238 4.8 8.0 0.00 0.00 0.00 43 1019.0
20260503214005 18 248 0.0 8.0 0.00 0.00 0.00 44 1019.1
20260503213505 18 249 1.6 4.8 0.00 0.00 0.00 44 1019.1
20260503213005 18 259 0.0 4.8 0.00 0.00 0.00 46 1019.1
20260503212505 18 261 3.2 9.7 0.00 0.00 0.00 43 1019.1
20260503212005 18 240 3.2 8.0 0.00 0.00 0.00 44 1019.2
20260503211505 18 236 4.8 9.7 0.00 0.00 0.00 42 1019.0
20260503211005 18 240 1.6 8.0 0.00 0.00 0.00 43 1019.1
20260503210505 18 251 3.2 9.7 0.00 0.00 0.00 42 1019.1
20260503210005 18 244 1.6 9.7 0.00 0.00 0.00 41 1019.1
20260503205505 18 242 1.6 4.8 0.00 0.00 0.00 42 1019.2
20260503204504 18 243 0.0 3.2 0.00 0.00 0.00 40 1019.3
20260503204005 18 243 4.8 9.7 0.00 0.00 0.00 40 1019.3
20260503203505 18 248 1.6 4.8 0.00 0.00 0.00 41 1019.4
20260503203005 18 248 1.6 4.8 0.00 0.00 0.00 41 1019.3
20260503202505 18 248 3.2 4.8 0.00 0.00 0.00 41 1019.5
20260503202005 18 222 0.0 1.6 0.00 0.00 0.00 40 1019.5
20260503201505 18 222 4.8 9.7 0.00 0.00 0.00 38 1019.6
20260503201005 18 229 3.2 9.7 0.00 0.00 0.00 37 1019.7
20260503200505 18 242 1.6 9.7 0.00 0.00 0.00 38 1019.7
20260503200005 19 240 4.8 11.3 0.00 0.00 0.00 38 1019.7
20260503195504 19 254 0.0 4.8 0.00 0.00 0.00 43 1019.8
20260503195005 19 254 3.2 8.0 0.00 0.00 0.00 38 1019.9
20260503194505 19 224 1.6 4.8 0.00 0.00 0.00 39 1019.9
20260503194005 19 240 1.6 4.8 0.00 0.00 0.00 38 1020.1
20260503193505 20 248 0.0 14.5 0.00 0.00 0.00 38 1019.9
20260503193005 20 236 4.8 9.7 0.00 0.00 0.00 38 1019.9
20260503192504 20 245 4.8 8.0 0.00 0.00 0.00 40 1020.0
20260503192004 20 196 1.6 3.2 0.00 0.00 0.00 41 1020.2
20260503191505 20 222 1.6 8.0 0.00 0.00 0.00 38 1020.3
20260503190505 20 235 3.2 9.7 0.00 0.00 0.00 37 1020.3
20260503190005 20 246 1.6 8.0 0.00 0.00 0.00 34 1020.5
20260503185504 20 246 1.6 8.0 0.00 0.00 0.00 34 1020.5
20260503185005 20 246 3.2 8.0 0.00 0.00 0.00 33 1020.6
20260503184505 20 252 1.6 14.5 0.00 0.00 0.00 36 1020.6
20260503184004 20 249 3.2 8.0 0.00 0.00 0.00 36 1020.6
20260503183505 19 250 4.8 8.0 0.00 0.00 0.00 36 1020.6
20260503183005 19 250 1.6 3.2 0.00 0.00 0.00 38 1020.7
20260503182505 19 253 1.6 8.0 0.00 0.00 0.00 39 1020.7
20260503181505 18 247 3.2 9.7 0.00 0.00 0.00 40 1020.9
20260503181005 18 201 0.0 4.8 0.00 0.00 0.00 40 1020.9
20260503180504 18 254 0.0 4.8 0.00 0.00 0.00 41 1020.9
20260503180005 18 250 3.2 8.0 0.00 0.00 0.00 39 1020.9
20260503175505 18 169 0.0 0.0 0.00 0.00 0.00 40 1020.9
20260503174504 18 216 3.2 4.8 0.00 0.00 0.00 43 1020.9
20260503174005 18 246 4.8 9.7 0.00 0.00 0.00 42 1021.0
20260503173505 17 226 0.0 4.8 0.00 0.00 0.00 45 1021.1
20260503173004 17 121 0.0 4.8 0.00 0.00 0.00 41 1021.2
20260503172505 17 161 0.0 3.2 0.00 0.00 0.00 41 1021.4
20260503172005 17 240 1.6 4.8 0.00 0.00 0.00 42 1021.4
20260503171505 17 205 1.6 4.8 0.00 0.00 0.00 44 1021.5
20260503171004 17 162 1.6 4.8 0.00 0.00 0.00 44 1021.5
20260503170505 16 101 1.6 4.8 0.00 0.00 0.00 45 1021.7
20260503151004 13 340 0.0 1.6 0.00 0.00 0.00 60 1022.7
20260503150505 12 340 0.0 0.0 0.00 0.00 0.00 62 1022.6
20260503131004 6 241 0.0 0.0 0.00 0.00 0.00 93 1022.8
20260503130504 6 241 0.0 0.0 0.00 0.00 0.00 94 1022.7
20260503110504 2 241 0.0 0.0 0.00 0.00 0.00 90 1022.2